This demonstration page uses our WeatherBlox Daily Observations layout. Learn more.

Left ArrowRight Arrow

Hourly Observations for August 1, 2020

Temp ( °F °C ) Dew Point ( °F °C ) Humidity (%) Winds ( mph kmh ) Pressure ( in mb ) Visibility ( mi km ) Precip ( " mm )
12:15 am 00:15 Clear 62 16.6 60 15.8 95 95 Calm 30.04 1017 10 16.0934 0 0
12:35 am 00:35 Clear 62 16.6 60 15.7 94 94 Calm 30.04 1017 10 16.0934 0 0
12:55 am 00:55 Clear 63 17.1 61 16 93 93 Calm 30.03 1017 10 16.0934 0 0
1:15 am 01:15 Clear 61 16.2 60 15.4 95 95 Calm 30.04 1017 7 11.26538 0 0
1:35 am 01:35 Clear 60 15.6 59 14.8 95 95 Calm 30.05 1018 10 16.0934 0 0
1:55 am 01:55 Clear 61 16.1 59 15.2 94 94 Calm 30.05 1018 10 16.0934 0 0
2:15 am 02:15 Clear 61 15.9 60 15.3 96 96 Calm 30.05 1018 10 16.0934 0 0
2:35 am 02:35 Clear 60 15.7 59 15 96 96 Calm 30.04 1017 10 16.0934 0 0
2:55 am 02:55 Clear 60 15.3 58 14.7 96 96 NW 5 7 30.06 1018 10 16.0934 0 0
3:15 am 03:15 Clear 60 15.5 59 15 97 97 Calm 30.05 1018 7 11.26538 0 0
3:35 am 03:35 Clear 60 15.5 59 15 97 97 Calm 30.05 1018 10 16.0934 0 0
3:55 am 03:55 Clear 59 15 58 14.4 96 96 WSW 3 6 30.04 1017 7 11.26538 0 0
4:15 am 04:15 Clear 61 16.2 60 15.5 96 96 Calm 30.03 1017 10 16.0934 0 0
4:35 am 04:35 Partly Cloudy 62 16.6 60 15.5 93 93 SW 3 6 30.03 1017 10 16.0934 0 0
4:55 am 04:55 Partly Cloudy 62 16.8 60 15.5 92 92 SW 3 6 30.01 1016 10 16.0934 0 0
5:15 am 05:15 Partly Cloudy 64 17.5 61 15.9 90 90 SW 5 7 30.01 1016 10 16.0934 0 0
5:35 am 05:35 Partly Cloudy 65 18.1 61 16 88 88 WSW 5 7 30.01 1016 10 16.0934 0 0
5:55 am 05:55 Partly Cloudy 64 18 61 16 88 88 W 3 6 30.02 1017 10 16.0934 0 0
6:15 am 06:15 Mostly Cloudy 65 18.5 61 16.1 86 86 S 3 6 30.01 1016 10 16.0934 0 0
6:35 am 06:35 Mostly Cloudy 64 17.5 61 16.1 92 92 Calm 30.02 1017 10 16.0934 0 0
6:55 am 06:55 Mostly Cloudy 63 17.1 61 16 93 93 NW 3 6 30.03 1017 10 16.0934 0 0
7:15 am 07:15 Cloudy 63 17.3 61 16.2 93 93 Calm 30.04 1017 10 16.0934 0 0
7:35 am 07:35 Mostly Cloudy 64 17.8 62 16.5 92 92 Calm 30.04 1017 10 16.0934 0 0
7:55 am 07:55 Partly Cloudy 65 18.2 62 16.7 91 91 Calm 30.02 1017 10 16.0934 0 0
8:15 am 08:15 Partly Cloudy 68 19.9 63 17.2 85 85 Calm 30.01 1016 10 16.0934 0 0
8:35 am 08:35 Sunny 69 20.6 64 17.7 84 84 Calm 30 1016 10 16.0934 0 0
8:55 am 08:55 Partly Cloudy 71 21.4 64 17.9 81 81 NNW 3 6 29.98 1015 10 16.0934 0 0
9:15 am 09:15 Partly Cloudy 70 21 64 17.6 81 81 NW 3 6 29.99 1016 10 16.0934 0 0
9:35 am 09:35 Sunny 71 21.5 65 18.2 82 82 NNW 7 11 30 1016 10 16.0934 0 0
9:55 am 09:55 Partly Cloudy 71 21.5 64 17.9 80 80 NNW 7 11 29.99 1016 10 16.0934 0 0
10:15 am 10:15 Cloudy 71 21.5 64 17.7 79 79 NNW 7 11 29.99 1016 10 16.0934 0 0
10:35 am 10:35 Mostly Cloudy 71 21.6 64 17.5 78 78 NNW 6 9 30 1016 10 16.0934 0 0
10:55 am 10:55 Mostly Cloudy 72 22.4 65 18.1 77 77 N 7 11 30.01 1016 10 16.0934 0 0
11:15 am 11:15 Partly Cloudy 75 24 66 18.7 72 72 N 6 9 29.99 1016 10 16.0934 0 0
11:35 am 11:35 Sunny 76 24.6 64 17.9 66 66 NNW 7 11 29.98 1015 10 16.0934 0 0
11:55 am 11:55 Sunny 78 25.4 64 17.5 62 62 N 6 9 29.97 1015 10 16.0934 0 0
12:15 pm 12:15 Sunny 78 25.7 63 17.3 60 60 NNW 8 13 29.97 1015 10 16.0934 0 0
12:35 pm 12:35 Sunny 79 26 62 16.6 56 56 NNW 10 17 29.97 1015 10 16.0934 0 0
12:55 pm 12:55 Sunny 79 26.1 62 16.8 57 57 NW 7 11 29.96 1014 10 16.0934 0 0
1:15 pm 13:15 Sunny 80 26.4 63 17.2 57 57 NNW 7 11 29.96 1014 10 16.0934 0 0
1:35 pm 13:35 Sunny 81 27.1 62 16.7 53 53 N 9 15 29.95 1014 10 16.0934 0 0
1:55 pm 13:55 Partly Cloudy 80 26.8 63 17 55 55 N 6 9 29.93 1014 10 16.0934 0 0
2:15 pm 14:15 Partly Cloudy 80 26.9 62 16.8 54 54 N 10 17 29.94 1014 10 16.0934 0 0
2:35 pm 14:35 Mostly Cloudy 80 26.5 62 16.9 56 56 N 7 11 29.95 1014 10 16.0934 0 0
2:55 pm 14:55 Partly Cloudy 81 27 64 17.9 58 58 NNE 9 15 29.95 1014 10 16.0934 0 0
3:15 pm 15:15 Partly Cloudy 82 27.5 65 18.2 57 57 NNE 10 17 29.94 1014 10 16.0934 0 0
3:35 pm 15:35 Partly Cloudy 81 27.4 63 17.1 53 53 NE 6 9 29.92 1013 10 16.0934 0 0
3:55 pm 15:55 Mostly Cloudy with Heavy Thunderstorms 71 21.9 59 15 65 65 NE 18 30 29.97 1015 5 8.0467 0.01 0.254
4:15 pm 16:15 Mostly Cloudy 69 20.6 62 16.6 78 78 E 5 7 29.99 1016 7 11.26538 0.01 0.254
4:35 pm 16:35 Partly Cloudy 78 25.3 60 15.5 55 55 Calm 29.95 1014 10 16.0934 0.01 0.254
4:55 pm 16:55 Partly Cloudy 79 26 63 17.1 58 58 NW 3 6 29.94 1014 10 16.0934 0.01 0.254
5:15 pm 17:15 Sunny 80 26.5 63 17 56 56 NNE 5 7 29.93 1014 10 16.0934 0 0
5:35 pm 17:35 Partly Cloudy 81 27 64 18 58 58 N 8 13 29.92 1013 10 16.0934 0 0
5:55 pm 17:55 Partly Cloudy 80 26.5 65 18.1 60 60 N 9 15 29.9 1013 10 16.0934 0 0
6:15 pm 18:15 Sunny 80 26.5 64 17.7 59 59 NNE 7 11 29.92 1013 10 16.0934 0 0
6:35 pm 18:35 Sunny 80 26.5 63 17.2 57 57 N 6 9 29.92 1013 10 16.0934 0 0
6:55 pm 18:55 Sunny 79 26.3 62 16.8 56 56 NNE 10 17 29.92 1013 10 16.0934 0 0
7:15 pm 19:15 Sunny 78 25.7 63 17.3 60 60 NNE 8 13 29.92 1013 10 16.0934 0 0
7:35 pm 19:35 Sunny 78 25.3 64 18 64 64 NNE 3 6 29.92 1013 10 16.0934 0 0
7:55 pm 19:55 Sunny 76 24.7 65 18.1 67 67 N 3 6 29.94 1014 10 16.0934 0 0
8:15 pm 20:15 Sunny 75 23.8 64 18 70 70 NNE 6 9 29.94 1014 10 16.0934 0 0
8:35 pm 20:35 Sunny 73 22.5 65 18.2 77 77 N 5 7 29.96 1014 10 16.0934 0 0
8:55 pm 20:55 Clear 71 21.5 65 18.5 83 83 N 5 7 29.96 1015 10 16.0934 0 0
9:15 pm 21:15 Clear 70 21.3 64 17.8 81 81 N 6 9 29.98 1015 10 16.0934 0 0
9:35 pm 21:35 Clear 69 20.4 64 17.6 84 84 NNE 5 7 29.98 1015 10 16.0934 0 0
9:55 pm 21:55 Clear 68 20 63 17.1 83 83 NNE 6 9 30 1016 10 16.0934 0 0
10:15 pm 22:15 Clear 67 19.3 63 17 87 87 NNE 5 7 30.01 1016 10 16.0934 0 0
10:35 pm 22:35 Clear 66 19.1 63 17 88 88 N 5 7 30.02 1017 10 16.0934 0 0
10:55 pm 22:55 Clear 66 19.1 63 17 88 88 N 5 7 30.03 1017 10 16.0934 0 0
11:15 pm 23:15 Partly Cloudy 66 18.8 62 16.9 89 89 N 3 6 30.04 1017 10 16.0934 0 0
11:35 pm 23:35 Partly Cloudy 65 18.2 62 16.7 91 91 N 5 7 30.05 1018 10 16.0934 0 0
11:55 pm 23:55 Partly Cloudy 65 18.6 62 16.8 89 89 N 3 6 30.06 1018 10 16.0934 0 0

Powered by AerisWeather